Home   Weather   Passo Fundo   Past weeks

Flag for Brazil Past Weather in Passo Fundo, Rio Grande do Sul, Brazil — Yesterday and Last 2 Weeks

Now
79 °F

Clear.


Feels Like: 82 °F
Forecast: N/A
Wind: 6 mph from Northwest

Location: Porto Alegre Aero-Porto

Current Time: Jan 17, 2017 at 9:41:17 pm

Latest Report: Jan 17, 2017 at 9:00 pm


Visibility: 10 mi

Pressure: 29.59 "Hg (27.38 "Hg at 680m altitude)

Humidity: 79%

Dew Point: 72 °F

Location of Passo FundoLocation

Past Weather in Passo Fundo — Graph

°F

Passo Fundo Temperature Yesterday

Maximum temperature yesterday: 88 °F (at 1:00 pm)
Minimum temperature yesterday: 34 °F (at 8:00 pm)
Average temperature yesterday: 76 °F

High & Low Weather Summary for the Past Weeks

 TemperatureHumidityPressure
High93 °F (Jan 3, 3:00 pm)100% (Jan 16, 8:00 pm)30.04 "Hg (Jan 16, 8:00 pm)
Low34 °F (Jan 16, 8:00 pm)43% (Jan 11, 4:00 pm)29.56 "Hg (Jan 17, 4:00 pm)
Average78 °F75%29.81 "Hg
* Reported Jan 2 8:00 pm — Jan 17 8:00 pm, Passo Fundo, Weather by CustomWeather, © 2017

Note: Actual official high and low records may vary slightly from our data, if they occured in-between our weather recording intervals... More about our weather records

Advertising

Passo Fundo Weather History for the Previous 24 Hours

Scroll right to see more
 ConditionsComfort  
Time TempWeatherWind HumidityBarometerVisibility
8:00 pm
Tue, Jan 17
81 °FPassing clouds.8 mph70%29.56 "HgN/A
7:00 pm82 °FPartly sunny.5 mph62%29.56 "HgN/A
6:00 pm82 °FOvercast.12 mph62%29.56 "HgN/A
5:00 pm82 °FPartly sunny.20 mph62%29.59 "HgN/A
4:00 pm84 °FBroken clouds.14 mph58%29.56 "HgN/A
3:00 pm86 °FPassing clouds.13 mph55%29.59 "HgN/A
2:00 pm84 °FScattered clouds.17 mph58%29.62 "HgN/A
1:00 pm82 °FScattered clouds.17 mph62%29.62 "HgN/A
12:00 pm82 °FScattered clouds.14 mph62%29.62 "HgN/A
11:00 am73 °FPartly sunny.3 mph94%29.65 "HgN/A
10:20 am73 °FBroken clouds.2 mph94%29.65 "Hg4 mi
9:00 am72 °FThunderstorms. Mostly cloudy.7 mph88%N/A3 mi
8:21 am72 °FThunderstorms. Mostly cloudy.10 mph88%29.68 "Hg3 mi
6:00 am37 °FThunderstorms. Overcast.5 mph100%29.62 "Hg4 mi
4:00 am73 °FThunderstorms. Partly cloudy.9 mph89%29.65 "HgN/A
3:00 am72 °FPassing clouds.1 mph88%29.65 "HgN/A
2:00 am72 °FPassing clouds.No wind88%29.65 "HgN/A
1:00 am72 °FPassing clouds.No wind88%29.68 "HgN/A
12:00 am72 °FPartly cloudy.2 mph88%29.71 "Hg5 mi
11:00 pm
Mon, Jan 16
72 °FFog.7 mph88%29.71 "Hg3 mi
10:00 pm72 °FThunderstorms. Fog.8 mph88%29.68 "Hg2 mi
9:00 pm36 °FThunderstorms. Mostly cloudy.5 mph100%29.71 "Hg2 mi
Weather by CustomWeather, © 2017

See weather overviewHow to use our weather pages